Location: Bazugues
(43.4465°N, 0.3432°E)
Time: 18:17:24
(UTC+00:00)

UNISAT 6 - Pass Details

Date: 18 May 2026
Orbit: 571 x 636 km, 97.8° (Epoch: 10 June)

Event Time Altitude Azimuth Distance (km) Brightness Sun altitude
Rises 01:59:12 0° 127° (SE) 2,910 ? -20.9°
Reaches altitude 10° 02:01:55 10° 110° (ESE) 1,998 ? -20.6°
Maximum altitude 02:04:58 19° 65° (ENE) 1,483 ? -20.3°
Drops below altitude 10° 02:08:01 10° 20° (NNE) 1,983 ? -20.0°
Sets 02:10:41 0° 3° (N) 2,880 ? -19.8°
